Location: Aalen
(48.8330°N, 10.1000°E)
Time: 03:57:02
(UTC+01:00)

BlueWalker 3 - Pass Details

Date: 06 December 2022
Orbit: 499 x 517 km, 53.2° (Epoch: 26 January)

Event Time Altitude Azimuth Distance (km) Brightness Sun altitude
Rises 17:16:36 0° 286° (WNW) 2,636 6.4 -8.4°
Reaches altitude 10° 17:18:53 10° 293° (WNW) 1,745 5.3 -8.8°
Maximum altitude 17:22:41 45° 7° (N) 709 2.5 -9.3°
Enters shadow 17:25:57 13° 79° (E) 1,540 3.8 -9.8°
